Theta_e
313 313 312 312 311 309 307 306 306 305 305 304 304 305 305 303 302 300 299 299 299 298
308 307 306 306 306 304 303 301 303 304 304 303 302 302 302 300 299 298 297 296 296 297
305 305 305 304 303 302 301 300 299 298 298 298 297 299 298 297 296 294 295 295 294 294
301 301 300 299 298 297 295 295 294 294 293 293 293 293 293 294 293 292 292 292 292 291
295 295 294 294 294 294 293 292 293 292 291 290 290 290 289 288 289 288 287 289 289 290
291 291 290 290 290 291 290 289 289 288 287 286 285 285 286 286 286 287 287 288 287 287
288 288 288 287 287 286 286 285 285 285 285 285 284 284 285 285 285 285 286 286 286 285
285 285 284 283 283 283 283 283 284 283 283 284 283 284 284 284 284 284 285 285 285 285
282 282 281 282 281 282 282 282 282 282 282 281 283 286 288 286 283 284 284 284 284 285
280 280 280 281 281 281 281 281 281 281 281 281 282 287 288 287 283 283 283 284 284 284
278 278 279 279 279 279 280 280 280 279 279 280 282 286 287 285 283 283 283 283 283 283
277 277 277 277 277 278 278 278 278 279 277 277 278 285 286 284 281 282 282 283 283 283
276 275 275 275 276 276 277 278 278 278 276 277 275 282 284 283 280 278 280 281 282 283
274 274 274 274 274 274 274 275 273 275 276 275 276 276 282 282 278 277 277 277 278 280
Wind_Speed
8 5 5 5 4 4 3 3 4 4 4 4 4 4 3 1 1 2 3 4 4 3
6 7 7 7 7 5 5 4 5 5 5 5 5 5 4 3 2 0 1 2 3 3
7 7 7 7 7 7 6 6 6 6 6 6 6 5 5 4 4 4 2 1 3 3
7 9 9 8 6 6 7 6 7 6 6 6 6 5 5 4 3 3 3 3 3 4
7 8 8 7 7 6 7 6 6 6 6 6 6 5 5 4 3 3 3 3 4 5
7 8 8 8 7 7 7 6 6 7 7 7 6 6 5 5 5 5 5 5 5 5
7 7 7 7 7 7 6 6 6 7 7 7 6 5 5 5 5 5 4 5 5 5
7 6 6 6 6 6 7 6 6 7 7 7 5 4 6 5 5 5 6 5 5 5
7 6 6 6 6 6 7 6 7 8 7 6 4 13 14 10 5 5 5 6 5 5
6 7 6 6 6 8 7 6 7 7 6 6 5 15 15 14 5 5 6 9 10 10
6 7 6 6 7 7 5 6 5 6 5 5 6 15 16 15 8 9 10 10 10 11
6 6 6 7 7 6 4 6 5 4 5 4 4 15 17 12 5 6 8 8 9 10
6 7 6 6 5 3 3 5 4 5 5 6 6 16 17 16 7 9 9 10 10 13
6 7 6 4 3 3 4 4 5 5 5 6 8 8 17 19 7 8 8 9 9 9
Wind_Direction
63 73 74 81 87 83 85 77 63 65 64 58 49 45 61 86 134 187 219 225 227 214
75 80 87 79 80 85 84 69 67 66 69 73 74 66 61 54 42 331 253 253 257 246
94 92 91 87 85 83 78 70 64 57 52 50 53 49 50 44 36 36 352 308 276 268
72 73 74 74 67 79 75 71 68 67 65 61 49 34 62 66 59 28 343 332 300 287
64 69 73 70 60 66 75 67 69 70 71 64 49 36 45 40 10 359 328 310 313 306
62 72 70 70 62 54 65 66 63 66 61 56 39 30 23 19 359 350 337 322 306 296
67 61 64 62 64 69 61 63 58 56 55 50 39 31 17 6 350 338 323 314 299 288
72 65 68 66 63 60 56 49 50 54 44 39 40 15 11 2 345 334 322 317 303 287
79 69 61 58 51 54 47 41 45 42 37 27 21 18 18 11 341 324 319 315 314 311
72 69 53 52 49 46 41 31 38 35 31 23 16 21 15 6 353 352 353 349 343 339
66 66 52 56 52 41 31 35 31 26 24 20 16 19 15 21 6 0 351 344 339 330
61 64 53 50 42 32 25 30 27 16 10 22 346 16 10 12 356 349 343 333 330 328
68 62 61 47 38 18 16 32 21 18 7 20 28 13 13 14 5 353 341 335 326 315
86 76 57 50 36 16 29 34 33 27 18 40 23 355 12 6 2 344 342 331 328 325